EW4061 Weather Reports


time (UTC)temp
C
wind
direction
speed
KPH
gust
KPH
rain 1hr
cm
rain 24hr
cm
rain mn
cm
humidity
%
barometer
mb
20260906104506 20 82 0.0 1.6 0.00 0.00 0.00 99 1013.9
20260906103606 20 140 0.0 3.2 0.00 0.00 0.00 99 1013.5
20260906102706 20 145 0.0 1.6 0.00 0.00 0.00 99 1013.5
20260906101806 20 0 0.0 0.0 0.00 0.00 0.00 99 1013.5
20260906100906 20 0 0.0 1.6 0.00 0.00 0.00 99 1013.5
20260906100006 20 268 0.0 1.6 0.00 0.00 0.00 99 1013.5
20260906095406 20 237 0.0 3.2 0.00 0.00 0.00 99 1013.5
20260906094506 20 101 0.0 3.2 0.00 0.00 0.00 99 1013.5
20260906093605 20 232 0.0 1.6 0.00 0.00 0.00 99 1013.2
20260906092705 19 0 0.0 1.6 0.00 0.00 0.00 99 1013.5
20260906091806 19 210 0.0 3.2 0.00 0.00 0.00 99 1013.2
20260906090906 19 94 0.0 1.6 0.00 0.00 0.00 99 1013.2
20260906090005 19 0 0.0 1.6 0.00 0.00 0.00 99 1013.2
20260906085405 19 220 0.0 1.6 0.00 0.00 0.00 99 1013.2
20260906084506 18 172 0.0 1.6 0.00 0.00 0.00 99 1012.8
20260906083605 19 130 0.0 1.6 0.00 0.00 0.00 99 1012.8
20260906082705 19 168 0.0 3.2 0.00 0.00 0.00 99 1012.8
20260906081805 19 150 0.0 3.2 0.00 0.00 0.00 99 1012.8
20260906080926 19 337 0.0 1.6 0.00 0.00 0.00 99 1012.8
20260906080006 18 272 0.0 3.2 0.00 0.00 0.00 99 1012.8
20260906075405 19 205 0.0 3.2 0.00 0.00 0.00 99 1012.5
20260906074526 19 89 0.0 1.6 0.00 0.00 0.00 99 1012.5
20260906073605 19 152 0.0 1.6 0.00 0.00 0.00 99 1012.8
20260906072705 20 155 0.0 1.6 0.00 0.00 0.00 99 1012.1
20260906071826 20 181 0.0 3.2 0.00 0.00 0.00 99 1012.5
20260906070927 20 48 0.0 1.6 0.00 0.00 0.00 99 1012.5
20260906070005 20 153 0.0 1.6 0.00 0.00 0.00 99 1012.8
20260906065405 20 318 0.0 3.2 0.00 0.00 0.00 99 1012.8
20260906064505 20 282 0.0 3.2 0.00 0.00 0.00 99 1012.8
20260906063605 20 178 0.0 1.6 0.00 0.00 0.00 99 1012.8
20260906062725 20 179 0.0 1.6 0.00 0.00 0.00 99 1013.2
20260906061805 20 87 0.0 1.6 0.00 0.00 0.00 99 1013.2
20260906060926 20 79 0.0 3.2 0.00 0.00 0.00 99 1013.2
20260906060004 20 245 0.0 3.2 0.00 0.00 0.00 99 1013.2
20260906055405 20 219 1.6 3.2 0.00 0.00 0.00 99 1013.5
20260906054505 20 0 0.0 0.0 0.00 0.00 0.00 99 1013.2
20260906053604 20 86 0.0 1.6 0.00 0.00 0.00 99 1013.5
20260906052704 20 106 0.0 1.6 0.00 0.00 0.00 99 1013.5
20260906051804 20 241 0.0 1.6 0.00 0.00 0.00 99 1013.2
20260906050904 20 218 0.0 3.2 0.00 0.00 0.00 99 1013.2
20260906050005 20 95 0.0 3.2 0.00 0.00 0.00 99 1013.2
20260906045404 20 151 0.0 3.2 0.00 0.00 0.00 99 1012.8
20260906044526 21 230 0.0 1.6 0.00 0.00 0.00 99 1013.2
20260906043604 21 0 0.0 1.6 0.00 0.00 0.00 99 1013.2
20260906042704 21 124 0.0 3.2 0.00 0.00 0.00 99 1013.2
20260906041805 21 69 0.0 3.2 0.00 0.00 0.00 99 1013.2
20260906040904 21 232 0.0 3.2 0.00 0.00 0.00 99 1013.5
20260906040005 21 67 0.0 1.6 0.00 0.00 0.00 98 1013.2
20260906035404 21 32 0.0 1.6 0.00 0.00 0.00 98 1013.5
20260906034504 21 277 0.0 3.2 0.00 0.00 0.00 97 1013.5
20260906033625 21 312 1.6 4.8 0.00 0.00 0.00 97 1013.5
20260906032704 21 213 0.0 3.2 0.00 0.00 0.00 97 1013.5
20260906031804 21 36 0.0 3.2 0.00 0.00 0.00 96 1013.5
20260906030904 21 35 0.0 3.2 0.00 0.00 0.00 96 1013.5
20260906030004 21 28 0.0 3.2 0.00 0.00 0.00 95 1013.5
20260906025404 22 273 0.0 3.2 0.00 0.00 0.00 95 1013.2
20260906024503 22 16 0.0 1.6 0.00 0.00 0.00 94 1013.2
20260906023604 22 260 0.0 1.6 0.00 0.00 0.00 93 1013.2
20260906022704 22 210 0.0 1.6 0.00 0.00 0.00 91 1013.2
20260906021804 23 169 0.0 1.6 0.00 0.00 0.00 90 1013.2
20260906020903 23 342 0.0 3.2 0.00 0.00 0.00 88 1013.2
20260906020004 23 192 0.0 3.2 0.00 0.00 0.00 85 1012.8
20260906015424 23 13 0.0 1.6 0.00 0.00 0.00 84 1012.8
20260906014525 23 357 0.0 1.6 0.00 0.00 0.00 85 1012.5
20260906013604 23 311 0.0 1.6 0.00 0.00 0.00 84 1012.5
20260906012725 23 356 0.0 1.6 0.00 0.00 0.00 83 1012.8
20260906011803 24 157 0.0 1.6 0.00 0.00 0.00 83 1012.5
20260906010903 24 170 0.0 1.6 0.00 0.00 0.00 83 1012.1
20260906010003 24 130 0.0 1.6 0.00 0.00 0.00 82 1012.5
20260906005424 24 359 0.0 1.6 0.00 0.00 0.00 80 1012.5
20260906004503 25 0 0.0 0.0 0.00 0.00 0.00 81 1012.1
20260906003603 25 0 0.0 1.6 0.00 0.00 0.00 81 1012.1
20260906002703 25 106 0.0 1.6 0.00 0.00 0.00 77 1012.1
20260906001803 25 62 0.0 3.2 0.00 0.00 0.00 77 1012.1
20260906000903 26 107 0.0 1.6 0.00 0.00 0.00 74 1012.1
20260906000003 26 235 0.0 3.2 0.00 0.00 0.00 67 1011.8
20260905235403 26 293 0.0 3.2 0.00 0.00 0.00 66 1011.4
20260905234503 26 37 0.0 1.6 0.00 0.00 0.00 67 1011.4
20260905233603 27 271 0.0 3.2 0.00 0.00 0.00 66 1011.4
20260905232703 27 276 0.0 3.2 0.00 0.00 0.00 69 1011.4
20260905231803 27 327 0.0 4.8 0.00 0.00 0.00 69 1011.4
20260905230924 27 170 0.0 4.8 0.00 0.00 0.00 66 1011.8
20260905230003 27 57 0.0 3.2 0.00 0.00 0.00 65 1011.8
20260905225403 28 314 0.0 3.2 0.00 0.00 0.00 65 1011.4
20260905224502 28 296 0.0 3.2 0.00 0.00 0.00 63 1011.4
20260905222725 28 319 0.0 4.8 0.00 0.00 0.00 63 1011.8
20260905221803 28 318 1.6 6.4 0.00 0.00 0.00 63 1011.4
20260905220924 29 299 1.6 6.4 0.00 0.00 0.00 61 1011.8
20260905220003 29 311 1.6 4.8 0.00 0.00 0.00 60 1011.4
20260905215403 30 316 1.6 6.4 0.00 0.00 0.00 58 1011.4
20260905214503 30 303 1.6 6.4 0.00 0.00 0.00 55 1011.4
20260905213603 31 290 1.6 4.8 0.00 0.00 0.00 55 1011.4
20260905212724 31 295 1.6 6.4 0.00 0.00 0.00 56 1011.1
20260905211830 31 285 1.6 4.8 0.00 0.00 0.00 57 1011.1
20260905210909 31 262 1.6 4.8 0.00 0.00 0.00 55 1011.1
20260905210009 32 264 1.6 4.8 0.00 0.00 0.00 57 1011.1
20260905205409 32 256 1.6 4.8 0.00 0.00 0.00 56 1011.1
20260905204509 31 268 0.0 3.2 0.00 0.00 0.00 57 1011.1
20260905203609 32 278 1.6 6.4 0.00 0.00 0.00 53 1011.1
20260905202709 32 257 1.6 9.7 0.00 0.00 0.00 53 1011.1
20260905201809 32 309 3.2 9.7 0.00 0.00 0.00 53 1011.1
20260905200910 32 249 1.6 6.4 0.00 0.00 0.00 53 1010.7
20260905200009 33 194 1.6 8.0 0.00 0.00 0.00 49 1010.7
20260905195409 33 252 1.6 4.8 0.00 0.00 0.00 49 1010.7
20260905194509 32 214 1.6 6.4 0.00 0.00 0.00 53 1010.7
20260905193609 32 188 4.8 11.3 0.00 0.00 0.00 52 1010.7
20260905192709 32 218 1.6 8.0 0.00 0.00 0.00 56 1011.1
20260905191809 32 210 3.2 9.7 0.00 0.00 0.00 56 1011.1
20260905190930 32 197 3.2 9.7 0.00 0.00 0.00 56 1011.4
20260905190030 31 185 4.8 11.3 0.00 0.00 0.00 59 1011.4
20260905185409 31 201 4.8 9.7 0.00 0.00 0.00 62 1011.8
20260905184509 31 218 3.2 8.0 0.00 0.00 0.00 64 1012.1
20260905183609 31 211 3.2 17.7 0.00 0.00 0.00 62 1012.1
20260905182730 30 206 4.8 17.7 0.00 0.00 0.00 63 1012.1
20260905181809 30 224 3.2 12.9 0.00 0.00 0.00 62 1012.5
20260905180908 30 184 1.6 6.4 0.00 0.00 0.00 61 1012.5
20260905180009 30 285 1.6 6.4 0.00 0.00 0.00 67 1012.1
20260905175408 30 256 1.6 6.4 0.00 0.00 0.00 64 1012.5
20260905174508 30 280 1.6 3.2 0.00 0.00 0.00 71 1012.5
20260905173608 30 7 1.6 4.8 0.00 0.00 0.00 66 1012.1
20260905172708 30 5 1.6 4.8 0.00 0.00 0.00 66 1012.1
20260905171808 30 229 3.2 6.4 0.00 0.00 0.00 61 1012.5
20260905170908 30 291 3.2 11.3 0.00 0.00 0.00 61 1012.5
20260905170008 30 188 3.2 11.3 0.00 0.00 0.00 62 1012.8
20260905165408 31 232 1.6 8.0 0.00 0.00 0.00 60 1013.2
20260905164529 31 181 1.6 6.4 0.00 0.00 0.00 62 1013.5
20260905163629 31 210 1.6 8.0 0.00 0.00 0.00 60 1013.5
20260905162729 31 222 1.6 6.4 0.00 0.00 0.00 64 1013.5
20260905161808 30 180 1.6 4.8 0.00 0.00 0.00 61 1013.9
20260905160909 30 150 3.2 9.7 0.00 0.00 0.00 63 1013.9
20260905160029 30 198 3.2 9.7 0.00 0.00 0.00 64 1014.2
20260905155408 30 245 1.6 8.0 0.00 0.00 0.00 63 1014.2
20260905154508 30 191 1.6 8.0 0.00 0.00 0.00 66 1014.2
20260905153608 29 155 1.6 9.7 0.00 0.00 0.00 68 1014.6
20260905152708 28 177 1.6 9.7 0.00 0.00 0.00 74 1014.2
20260905151808 29 230 1.6 12.9 0.00 0.00 0.00 75 1014.6
20260905150908 30 352 1.6 4.8 0.00 0.00 0.00 72 1014.6
20260905150029 30 345 1.6 4.8 0.00 0.00 0.00 71 1013.9
20260905145408 30 175 1.6 6.4 0.00 0.00 0.00 67 1013.9
20260905144508 31 299 1.6 6.4 0.00 0.00 0.00 67 1013.5
20260905143608 31 290 1.6 6.4 0.00 0.00 0.00 65 1013.9
20260905142708 31 169 3.2 8.0 0.00 0.00 0.00 64 1014.2
20260905141808 31 108 3.2 6.4 0.00 0.00 0.00 63 1013.9
20260905140908 31 209 3.2 11.3 0.00 0.00 0.00 64 1013.9
20260905140008 31 270 3.2 11.3 0.00 0.00 0.00 62 1013.5
20260905135408 32 233 1.6 6.4 0.00 0.00 0.00 62 1013.5
20260905134508 31 357 3.2 14.5 0.00 0.00 0.00 66 1013.5
20260905133607 30 266 3.2 14.5 0.00 0.00 0.00 67 1013.5
20260905132730 30 251 3.2 8.0 0.00 0.00 0.00 70 1013.2
20260905131807 30 220 1.6 8.0 0.00 0.00 0.00 70 1013.5
20260905130907 30 255 1.6 9.7 0.00 0.00 0.00 69 1013.5
20260905130008 30 278 3.2 9.7 0.00 0.00 0.00 72 1013.5
20260905125407 28 243 3.2 12.9 0.00 0.00 0.00 75 1013.2
20260905124507 28 200 3.2 17.7 0.00 0.00 0.00 77 1013.2
20260905123607 27 191 3.2 16.1 0.00 0.00 0.00 78 1013.5
20260905122707 26 218 1.6 6.4 0.00 0.00 0.00 87 1013.2
20260905121807 25 208 1.6 6.4 0.00 0.00 0.00 89 1013.5
20260905120907 25 224 1.6 11.3 0.00 0.00 0.00 89 1013.5
20260905120028 23 219 1.6 4.8 0.00 0.00 0.00 99 1013.5
20260905115428 22 197 1.6 4.8 0.00 0.00 0.00 99 1013.2
20260905114508 22 259 1.6 4.8 0.00 0.00 0.00 99 1013.2
20260905113607 21 207 1.6 4.8 0.00 0.00 0.00 99 1013.2
20260905112707 21 147 1.6 4.8 0.00 0.00 0.00 99 1013.2
20260905111807 21 181 0.0 3.2 0.00 0.00 0.00 99 1013.2
20260905110907 21 217 0.0 3.2 0.00 0.00 0.00 99 1013.2
20260905110007 20 150 1.6 4.8 0.00 0.00 0.00 99 1013.5
20260905105407 20 92 0.0 3.2 0.00 0.00 0.00 99 1013.2